User: anonymous
Location: Ostrava
(49.8330°N, 18.2830°E)
Time: 21:54:25
(UTC+02:00)
Language:

NOAA 19 - Orbit

View from above orbital plane
View from above orbital plane
View from above satellite
View from above satellite

Ground track
Ground track

The orbit data is extracted from the following two-line orbital elements,

1 33591U 09005A   14273.46278050  .00000206  00000-0  13772-3 0  4091
2 33591 098.9545 218.2307 0014084 178.4085 315.0965 14.11771684290848
Epoch (UTC): 30 September 2014 11:06:24
Eccentricity: 0.0014084
inclination: 98.9545°
perigee height: 843 km
apogee height: 863 km
right ascension of ascending node: 218.2307°
argument of perigee: 178.4085°
revolutions per day: 14.11771684
mean anomaly at epoch: 315.0965°
orbit number at epoch: 29084

The dashed part of the orbit path shows where the satellite is in the earth's shadow,  

DLR